Index of /20260429/WXO-DD/model_rdps/10km/00/035
Name Last modified Size Description
Parent Directory -
20260429T00Z_MSC_RDPS_AbsoluteVorticity_IsbL-0250_RLatLon0.09_PT035H.grib2 2026-04-29 02:49 628K
20260429T00Z_MSC_RDPS_AbsoluteVorticity_IsbL-0500_RLatLon0.09_PT035H.grib2 2026-04-29 02:49 572K
20260429T00Z_MSC_RDPS_AbsoluteVorticity_IsbL-0700_RLatLon0.09_PT035H.grib2 2026-04-29 02:49 621K
20260429T00Z_MSC_RDPS_AbsoluteVorticity_IsbL-0850_RLatLon0.09_PT035H.grib2 2026-04-29 02:49 777K
20260429T00Z_MSC_RDPS_AirTemp_AGL-120m_RLatLon0.09_PT035H.grib2 2026-04-29 02:49 392K
20260429T00Z_MSC_RDPS_AirTemp_AGL-2m_RLatLon0.09_PT035H.grib2 2026-04-29 02:49 637K
20260429T00Z_MSC_RDPS_AirTemp_AGL-40m_RLatLon0.09_PT035H.grib2 2026-04-29 02:49 395K
20260429T00Z_MSC_RDPS_AirTemp_AGL-80m_RLatLon0.09_PT035H.grib2 2026-04-29 02:49 384K
20260429T00Z_MSC_RDPS_AirTemp_IsbL-0001_RLatLon0.09_PT035H.grib2 2026-04-29 02:49 305K
20260429T00Z_MSC_RDPS_AirTemp_IsbL-0005_RLatLon0.09_PT035H.grib2 2026-04-29 02:49 292K
20260429T00Z_MSC_RDPS_AirTemp_IsbL-0010_RLatLon0.09_PT035H.grib2 2026-04-29 02:49 305K
20260429T00Z_MSC_RDPS_AirTemp_IsbL-0020_RLatLon0.09_PT035H.grib2 2026-04-29 02:49 317K
20260429T00Z_MSC_RDPS_AirTemp_IsbL-0030_RLatLon0.09_PT035H.grib2 2026-04-29 02:49 342K
20260429T00Z_MSC_RDPS_AirTemp_IsbL-0050_RLatLon0.09_PT035H.grib2 2026-04-29 02:49 316K
20260429T00Z_MSC_RDPS_AirTemp_IsbL-0100_RLatLon0.09_PT035H.grib2 2026-04-29 02:49 429K
20260429T00Z_MSC_RDPS_AirTemp_IsbL-0150_RLatLon0.09_PT035H.grib2 2026-04-29 02:49 428K
20260429T00Z_MSC_RDPS_AirTemp_IsbL-0175_RLatLon0.09_PT035H.grib2 2026-04-29 02:49 416K
20260429T00Z_MSC_RDPS_AirTemp_IsbL-0200_RLatLon0.09_PT035H.grib2 2026-04-29 02:49 419K
20260429T00Z_MSC_RDPS_AirTemp_IsbL-0225_RLatLon0.09_PT035H.grib2 2026-04-29 02:49 421K
20260429T00Z_MSC_RDPS_AirTemp_IsbL-0250_RLatLon0.09_PT035H.grib2 2026-04-29 02:49 430K
20260429T00Z_MSC_RDPS_AirTemp_IsbL-0275_RLatLon0.09_PT035H.grib2 2026-04-29 02:49 409K
20260429T00Z_MSC_RDPS_AirTemp_IsbL-0300_RLatLon0.09_PT035H.grib2 2026-04-29 02:49 414K
20260429T00Z_MSC_RDPS_AirTemp_IsbL-0350_RLatLon0.09_PT035H.grib2 2026-04-29 02:49 427K
20260429T00Z_MSC_RDPS_AirTemp_IsbL-0400_RLatLon0.09_PT035H.grib2 2026-04-29 02:49 427K
20260429T00Z_MSC_RDPS_AirTemp_IsbL-0450_RLatLon0.09_PT035H.grib2 2026-04-29 02:49 434K
20260429T00Z_MSC_RDPS_AirTemp_IsbL-0500_RLatLon0.09_PT035H.grib2 2026-04-29 02:49 408K
20260429T00Z_MSC_RDPS_AirTemp_IsbL-0550_RLatLon0.09_PT035H.grib2 2026-04-29 02:49 425K
20260429T00Z_MSC_RDPS_AirTemp_IsbL-0600_RLatLon0.09_PT035H.grib2 2026-04-29 02:49 446K
20260429T00Z_MSC_RDPS_AirTemp_IsbL-0650_RLatLon0.09_PT035H.grib2 2026-04-29 02:49 464K
20260429T00Z_MSC_RDPS_AirTemp_IsbL-0700_RLatLon0.09_PT035H.grib2 2026-04-29 02:49 486K
20260429T00Z_MSC_RDPS_AirTemp_IsbL-0750_RLatLon0.09_PT035H.grib2 2026-04-29 02:49 521K
20260429T00Z_MSC_RDPS_AirTemp_IsbL-0800_RLatLon0.09_PT035H.grib2 2026-04-29 02:49 449K
20260429T00Z_MSC_RDPS_AirTemp_IsbL-0850_RLatLon0.09_PT035H.grib2 2026-04-29 02:49 501K
20260429T00Z_MSC_RDPS_AirTemp_IsbL-0875_RLatLon0.09_PT035H.grib2 2026-04-29 02:49 523K
20260429T00Z_MSC_RDPS_AirTemp_IsbL-0900_RLatLon0.09_PT035H.grib2 2026-04-29 02:49 531K
20260429T00Z_MSC_RDPS_AirTemp_IsbL-0925_RLatLon0.09_PT035H.grib2 2026-04-29 02:49 527K
20260429T00Z_MSC_RDPS_AirTemp_IsbL-0950_RLatLon0.09_PT035H.grib2 2026-04-29 02:49 527K
20260429T00Z_MSC_RDPS_AirTemp_IsbL-0970_RLatLon0.09_PT035H.grib2 2026-04-29 02:49 519K
20260429T00Z_MSC_RDPS_AirTemp_IsbL-0985_RLatLon0.09_PT035H.grib2 2026-04-29 02:49 505K
20260429T00Z_MSC_RDPS_AirTemp_IsbL-1000_RLatLon0.09_PT035H.grib2 2026-04-29 02:49 488K
20260429T00Z_MSC_RDPS_AirTemp_IsbL-1015_RLatLon0.09_PT035H.grib2 2026-04-29 02:49 487K
20260429T00Z_MSC_RDPS_Albedo_Sfc_RLatLon0.09_PT035H.grib2 2026-04-29 02:49 156K
20260429T00Z_MSC_RDPS_CAPE_Sfc_RLatLon0.09_PT035H.grib2 2026-04-29 02:49 1.6M
20260429T00Z_MSC_RDPS_CIN_Sfc_RLatLon0.09_PT035H.grib2 2026-04-29 02:49 1.1M
20260429T00Z_MSC_RDPS_CloudWater_EAtm_RLatLon0.09_PT035H.grib2 2026-04-29 02:49 219K
20260429T00Z_MSC_RDPS_ConvectivePrecip-Accum_Sfc_RLatLon0.09_PT035H.grib2 2026-04-29 02:49 911K
20260429T00Z_MSC_RDPS_DewPointDepression_AGL-2m_RLatLon0.09_PT035H.grib2 2026-04-29 02:49 392K
20260429T00Z_MSC_RDPS_DewPointDepression_IsbL-0001_RLatLon0.09_PT035H.grib2 2026-04-29 02:49 193
20260429T00Z_MSC_RDPS_DewPointDepression_IsbL-0005_RLatLon0.09_PT035H.grib2 2026-04-29 02:49 193
20260429T00Z_MSC_RDPS_DewPointDepression_IsbL-0010_RLatLon0.09_PT035H.grib2 2026-04-29 02:49 193
20260429T00Z_MSC_RDPS_DewPointDepression_IsbL-0020_RLatLon0.09_PT035H.grib2 2026-04-29 02:49 193
20260429T00Z_MSC_RDPS_DewPointDepression_IsbL-0030_RLatLon0.09_PT035H.grib2 2026-04-29 02:49 193
20260429T00Z_MSC_RDPS_DewPointDepression_IsbL-0050_RLatLon0.09_PT035H.grib2 2026-04-29 02:49 83K
20260429T00Z_MSC_RDPS_DewPointDepression_IsbL-0100_RLatLon0.09_PT035H.grib2 2026-04-29 02:49 130K
20260429T00Z_MSC_RDPS_DewPointDepression_IsbL-0150_RLatLon0.09_PT035H.grib2 2026-04-29 02:49 149K
20260429T00Z_MSC_RDPS_DewPointDepression_IsbL-0175_RLatLon0.09_PT035H.grib2 2026-04-29 02:49 179K
20260429T00Z_MSC_RDPS_DewPointDepression_IsbL-0200_RLatLon0.09_PT035H.grib2 2026-04-29 02:49 216K
20260429T00Z_MSC_RDPS_DewPointDepression_IsbL-0225_RLatLon0.09_PT035H.grib2 2026-04-29 02:49 264K
20260429T00Z_MSC_RDPS_DewPointDepression_IsbL-0250_RLatLon0.09_PT035H.grib2 2026-04-29 02:49 305K
20260429T00Z_MSC_RDPS_DewPointDepression_IsbL-0275_RLatLon0.09_PT035H.grib2 2026-04-29 02:49 309K
20260429T00Z_MSC_RDPS_DewPointDepression_IsbL-0300_RLatLon0.09_PT035H.grib2 2026-04-29 02:49 330K
20260429T00Z_MSC_RDPS_DewPointDepression_IsbL-0350_RLatLon0.09_PT035H.grib2 2026-04-29 02:49 333K
20260429T00Z_MSC_RDPS_DewPointDepression_IsbL-0400_RLatLon0.09_PT035H.grib2 2026-04-29 02:49 340K
20260429T00Z_MSC_RDPS_DewPointDepression_IsbL-0450_RLatLon0.09_PT035H.grib2 2026-04-29 02:49 344K
20260429T00Z_MSC_RDPS_DewPointDepression_IsbL-0500_RLatLon0.09_PT035H.grib2 2026-04-29 02:49 349K
20260429T00Z_MSC_RDPS_DewPointDepression_IsbL-0550_RLatLon0.09_PT035H.grib2 2026-04-29 02:49 360K
20260429T00Z_MSC_RDPS_DewPointDepression_IsbL-0600_RLatLon0.09_PT035H.grib2 2026-04-29 02:49 376K
20260429T00Z_MSC_RDPS_DewPointDepression_IsbL-0650_RLatLon0.09_PT035H.grib2 2026-04-29 02:49 385K
20260429T00Z_MSC_RDPS_DewPointDepression_IsbL-0700_RLatLon0.09_PT035H.grib2 2026-04-29 02:49 393K
20260429T00Z_MSC_RDPS_DewPointDepression_IsbL-0750_RLatLon0.09_PT035H.grib2 2026-04-29 02:49 410K
20260429T00Z_MSC_RDPS_DewPointDepression_IsbL-0800_RLatLon0.09_PT035H.grib2 2026-04-29 02:49 437K
20260429T00Z_MSC_RDPS_DewPointDepression_IsbL-0850_RLatLon0.09_PT035H.grib2 2026-04-29 02:49 466K
20260429T00Z_MSC_RDPS_DewPointDepression_IsbL-0875_RLatLon0.09_PT035H.grib2 2026-04-29 02:49 470K
20260429T00Z_MSC_RDPS_DewPointDepression_IsbL-0900_RLatLon0.09_PT035H.grib2 2026-04-29 02:49 461K
20260429T00Z_MSC_RDPS_DewPointDepression_IsbL-0925_RLatLon0.09_PT035H.grib2 2026-04-29 02:49 446K
20260429T00Z_MSC_RDPS_DewPointDepression_IsbL-0950_RLatLon0.09_PT035H.grib2 2026-04-29 02:49 442K
20260429T00Z_MSC_RDPS_DewPointDepression_IsbL-0970_RLatLon0.09_PT035H.grib2 2026-04-29 02:49 435K
20260429T00Z_MSC_RDPS_DewPointDepression_IsbL-0985_RLatLon0.09_PT035H.grib2 2026-04-29 02:49 428K
20260429T00Z_MSC_RDPS_DewPointDepression_IsbL-1000_RLatLon0.09_PT035H.grib2 2026-04-29 02:49 423K
20260429T00Z_MSC_RDPS_DewPointDepression_IsbL-1015_RLatLon0.09_PT035H.grib2 2026-04-29 02:49 414K
20260429T00Z_MSC_RDPS_DewPoint_AGL-2m_RLatLon0.09_PT035H.grib2 2026-04-29 02:49 397K
20260429T00Z_MSC_RDPS_DownwardLongwaveRadiationFlux-Accum_Sfc_RLatLon0.09_PT035H.grib2 2026-04-29 02:49 365K
20260429T00Z_MSC_RDPS_DownwardShortwaveRadiationFlux-Accum_NTAtm_RLatLon0.09_PT035H.grib2 2026-04-29 02:49 113K
20260429T00Z_MSC_RDPS_DownwardShortwaveRadiationFlux-Accum_Sfc_RLatLon0.09_PT035H.grib2 2026-04-29 02:49 520K
20260429T00Z_MSC_RDPS_FreezingRain-Accum1h_Sfc_RLatLon0.09_PT035H.grib2 2026-04-29 02:49 38K
20260429T00Z_MSC_RDPS_FreezingRain-Accum_Sfc_RLatLon0.09_PT035H.grib2 2026-04-29 02:49 152K
20260429T00Z_MSC_RDPS_GeopotentialHeight_IsbL-0001_RLatLon0.09_PT035H.grib2 2026-04-29 02:49 239K
20260429T00Z_MSC_RDPS_GeopotentialHeight_IsbL-0005_RLatLon0.09_PT035H.grib2 2026-04-29 02:49 304K
20260429T00Z_MSC_RDPS_GeopotentialHeight_IsbL-0010_RLatLon0.09_PT035H.grib2 2026-04-29 02:49 306K
20260429T00Z_MSC_RDPS_GeopotentialHeight_IsbL-0020_RLatLon0.09_PT035H.grib2 2026-04-29 02:49 305K
20260429T00Z_MSC_RDPS_GeopotentialHeight_IsbL-0030_RLatLon0.09_PT035H.grib2 2026-04-29 02:49 306K
20260429T00Z_MSC_RDPS_GeopotentialHeight_IsbL-0050_RLatLon0.09_PT035H.grib2 2026-04-29 02:49 307K
20260429T00Z_MSC_RDPS_GeopotentialHeight_IsbL-0100_RLatLon0.09_PT035H.grib2 2026-04-29 02:49 285K
20260429T00Z_MSC_RDPS_GeopotentialHeight_IsbL-0150_RLatLon0.09_PT035H.grib2 2026-04-29 02:49 229K
20260429T00Z_MSC_RDPS_GeopotentialHeight_IsbL-0175_RLatLon0.09_PT035H.grib2 2026-04-29 02:49 232K
20260429T00Z_MSC_RDPS_GeopotentialHeight_IsbL-0200_RLatLon0.09_PT035H.grib2 2026-04-29 02:49 264K
20260429T00Z_MSC_RDPS_GeopotentialHeight_IsbL-0225_RLatLon0.09_PT035H.grib2 2026-04-29 02:49 266K
20260429T00Z_MSC_RDPS_GeopotentialHeight_IsbL-0250_RLatLon0.09_PT035H.grib2 2026-04-29 02:49 267K
20260429T00Z_MSC_RDPS_GeopotentialHeight_IsbL-0275_RLatLon0.09_PT035H.grib2 2026-04-29 02:49 266K
20260429T00Z_MSC_RDPS_GeopotentialHeight_IsbL-0300_RLatLon0.09_PT035H.grib2 2026-04-29 02:49 235K
20260429T00Z_MSC_RDPS_GeopotentialHeight_IsbL-0350_RLatLon0.09_PT035H.grib2 2026-04-29 02:49 231K
20260429T00Z_MSC_RDPS_GeopotentialHeight_IsbL-0400_RLatLon0.09_PT035H.grib2 2026-04-29 02:49 228K
20260429T00Z_MSC_RDPS_GeopotentialHeight_IsbL-0450_RLatLon0.09_PT035H.grib2 2026-04-29 02:49 296K
20260429T00Z_MSC_RDPS_GeopotentialHeight_IsbL-0500_RLatLon0.09_PT035H.grib2 2026-04-29 02:49 290K
20260429T00Z_MSC_RDPS_GeopotentialHeight_IsbL-0550_RLatLon0.09_PT035H.grib2 2026-04-29 02:49 287K
20260429T00Z_MSC_RDPS_GeopotentialHeight_IsbL-0600_RLatLon0.09_PT035H.grib2 2026-04-29 02:49 256K
20260429T00Z_MSC_RDPS_GeopotentialHeight_IsbL-0650_RLatLon0.09_PT035H.grib2 2026-04-29 02:49 253K
20260429T00Z_MSC_RDPS_GeopotentialHeight_IsbL-0700_RLatLon0.09_PT035H.grib2 2026-04-29 02:49 333K
20260429T00Z_MSC_RDPS_GeopotentialHeight_IsbL-0750_RLatLon0.09_PT035H.grib2 2026-04-29 02:49 335K
20260429T00Z_MSC_RDPS_GeopotentialHeight_IsbL-0800_RLatLon0.09_PT035H.grib2 2026-04-29 02:49 342K
20260429T00Z_MSC_RDPS_GeopotentialHeight_IsbL-0850_RLatLon0.09_PT035H.grib2 2026-04-29 02:49 384K
20260429T00Z_MSC_RDPS_GeopotentialHeight_IsbL-0875_RLatLon0.09_PT035H.grib2 2026-04-29 02:49 389K
20260429T00Z_MSC_RDPS_GeopotentialHeight_IsbL-0900_RLatLon0.09_PT035H.grib2 2026-04-29 02:49 393K
20260429T00Z_MSC_RDPS_GeopotentialHeight_IsbL-0925_RLatLon0.09_PT035H.grib2 2026-04-29 02:49 396K
20260429T00Z_MSC_RDPS_GeopotentialHeight_IsbL-0950_RLatLon0.09_PT035H.grib2 2026-04-29 02:49 400K
20260429T00Z_MSC_RDPS_GeopotentialHeight_IsbL-0970_RLatLon0.09_PT035H.grib2 2026-04-29 02:49 406K
20260429T00Z_MSC_RDPS_GeopotentialHeight_IsbL-0985_RLatLon0.09_PT035H.grib2 2026-04-29 02:49 415K
20260429T00Z_MSC_RDPS_GeopotentialHeight_IsbL-1000_RLatLon0.09_PT035H.grib2 2026-04-29 02:49 427K
20260429T00Z_MSC_RDPS_GeopotentialHeight_IsbL-1015_RLatLon0.09_PT035H.grib2 2026-04-29 02:49 442K
20260429T00Z_MSC_RDPS_Humidex_Sfc_RLatLon0.09_PT035H.grib2 2026-04-29 02:49 2.4M
20260429T00Z_MSC_RDPS_IcePellets-Accum1h_Sfc_RLatLon0.09_PT035H.grib2 2026-04-29 02:49 2.2K
20260429T00Z_MSC_RDPS_IcePellets-Accum_Sfc_RLatLon0.09_PT035H.grib2 2026-04-29 02:49 20K
20260429T00Z_MSC_RDPS_KIndex_Sfc_RLatLon0.09_PT035H.grib2 2026-04-29 02:49 2.5M
20260429T00Z_MSC_RDPS_LatentHeatNetFlux_Sfc_RLatLon0.09_PT035H.grib2 2026-04-29 02:49 403K
20260429T00Z_MSC_RDPS_LiftedIndex-MU-VT_IsbL-0500_RLatLon0.09_PT035H.grib2 2026-04-29 02:49 2.4M
20260429T00Z_MSC_RDPS_NetLongwaveRadiationFlux-Accum_Sfc_RLatLon0.09_PT035H.grib2 2026-04-29 02:49 487K
20260429T00Z_MSC_RDPS_NetShortwaveRadiationFlux-Accum_Sfc_RLatLon0.09_PT035H.grib2 2026-04-29 02:49 521K
20260429T00Z_MSC_RDPS_PlanetaryBoundaryLayerHeight_Sfc_RLatLon0.09_PT035H.grib2 2026-04-29 02:49 1.1M
20260429T00Z_MSC_RDPS_Precip-Accum1h_Sfc_RLatLon0.09_PT035H.grib2 2026-04-29 02:49 1.3M
20260429T00Z_MSC_RDPS_Precip-Accum_Sfc_RLatLon0.09_PT035H.grib2 2026-04-29 02:49 1.9M
20260429T00Z_MSC_RDPS_PrecipRate_Sfc_RLatLon0.09_PT035H.grib2 2026-04-29 02:49 181K
20260429T00Z_MSC_RDPS_PrecipType-Instant_Sfc_RLatLon0.09_PT035H.grib2 2026-04-29 02:49 580K
20260429T00Z_MSC_RDPS_Pressure-Trend3h_Sfc_RLatLon0.09_PT035H.grib2 2026-04-29 02:49 1.2M
20260429T00Z_MSC_RDPS_Pressure_MSL_RLatLon0.09_PT035H.grib2 2026-04-29 02:49 291K
20260429T00Z_MSC_RDPS_Pressure_PVU-1.5_RLatLon0.09_PT035H.grib2 2026-04-29 02:49 2.3M
20260429T00Z_MSC_RDPS_Pressure_PVU-1_RLatLon0.09_PT035H.grib2 2026-04-29 02:49 2.4M
20260429T00Z_MSC_RDPS_Pressure_PVU-2_RLatLon0.09_PT035H.grib2 2026-04-29 02:49 2.3M
20260429T00Z_MSC_RDPS_Pressure_Sfc_RLatLon0.09_PT035H.grib2 2026-04-29 02:49 500K
20260429T00Z_MSC_RDPS_RadiativeTemp_Sfc_RLatLon0.09_PT035H.grib2 2026-04-29 02:49 307K
20260429T00Z_MSC_RDPS_Rain-Accum1h_Sfc_RLatLon0.09_PT035H.grib2 2026-04-29 02:49 619K
20260429T00Z_MSC_RDPS_Rain-Accum_Sfc_RLatLon0.09_PT035H.grib2 2026-04-29 02:49 1.4M
20260429T00Z_MSC_RDPS_RelativeHumidity_AGL-2m_RLatLon0.09_PT035H.grib2 2026-04-29 02:49 1.0M
20260429T00Z_MSC_RDPS_RelativeHumidity_IsbL-0010_RLatLon0.09_PT035H.grib2 2026-04-29 02:49 643K
20260429T00Z_MSC_RDPS_RelativeHumidity_IsbL-0020_RLatLon0.09_PT035H.grib2 2026-04-29 02:49 688K
20260429T00Z_MSC_RDPS_RelativeHumidity_IsbL-0030_RLatLon0.09_PT035H.grib2 2026-04-29 02:49 607K
20260429T00Z_MSC_RDPS_RelativeHumidity_IsbL-0050_RLatLon0.09_PT035H.grib2 2026-04-29 02:49 322K
20260429T00Z_MSC_RDPS_RelativeHumidity_IsbL-0100_RLatLon0.09_PT035H.grib2 2026-04-29 02:49 286K
20260429T00Z_MSC_RDPS_RelativeHumidity_IsbL-0150_RLatLon0.09_PT035H.grib2 2026-04-29 02:49 410K
20260429T00Z_MSC_RDPS_RelativeHumidity_IsbL-0175_RLatLon0.09_PT035H.grib2 2026-04-29 02:49 479K
20260429T00Z_MSC_RDPS_RelativeHumidity_IsbL-0200_RLatLon0.09_PT035H.grib2 2026-04-29 02:49 555K
20260429T00Z_MSC_RDPS_RelativeHumidity_IsbL-0225_RLatLon0.09_PT035H.grib2 2026-04-29 02:49 628K
20260429T00Z_MSC_RDPS_RelativeHumidity_IsbL-0250_RLatLon0.09_PT035H.grib2 2026-04-29 02:49 705K
20260429T00Z_MSC_RDPS_RelativeHumidity_IsbL-0275_RLatLon0.09_PT035H.grib2 2026-04-29 02:49 731K
20260429T00Z_MSC_RDPS_RelativeHumidity_IsbL-0300_RLatLon0.09_PT035H.grib2 2026-04-29 02:49 777K
20260429T00Z_MSC_RDPS_RelativeHumidity_IsbL-0350_RLatLon0.09_PT035H.grib2 2026-04-29 02:49 791K
20260429T00Z_MSC_RDPS_RelativeHumidity_IsbL-0400_RLatLon0.09_PT035H.grib2 2026-04-29 02:49 799K
20260429T00Z_MSC_RDPS_RelativeHumidity_IsbL-0450_RLatLon0.09_PT035H.grib2 2026-04-29 02:49 802K
20260429T00Z_MSC_RDPS_RelativeHumidity_IsbL-0500_RLatLon0.09_PT035H.grib2 2026-04-29 02:49 807K
20260429T00Z_MSC_RDPS_RelativeHumidity_IsbL-0550_RLatLon0.09_PT035H.grib2 2026-04-29 02:49 824K
20260429T00Z_MSC_RDPS_RelativeHumidity_IsbL-0600_RLatLon0.09_PT035H.grib2 2026-04-29 02:49 850K
20260429T00Z_MSC_RDPS_RelativeHumidity_IsbL-0650_RLatLon0.09_PT035H.grib2 2026-04-29 02:49 865K
20260429T00Z_MSC_RDPS_RelativeHumidity_IsbL-0700_RLatLon0.09_PT035H.grib2 2026-04-29 02:49 886K
20260429T00Z_MSC_RDPS_RelativeHumidity_IsbL-0750_RLatLon0.09_PT035H.grib2 2026-04-29 02:49 931K
20260429T00Z_MSC_RDPS_RelativeHumidity_IsbL-0800_RLatLon0.09_PT035H.grib2 2026-04-29 02:49 1.0M
20260429T00Z_MSC_RDPS_RelativeHumidity_IsbL-0850_RLatLon0.09_PT035H.grib2 2026-04-29 02:49 1.0M
20260429T00Z_MSC_RDPS_RelativeHumidity_IsbL-0875_RLatLon0.09_PT035H.grib2 2026-04-29 02:49 1.1M
20260429T00Z_MSC_RDPS_RelativeHumidity_IsbL-0900_RLatLon0.09_PT035H.grib2 2026-04-29 02:49 1.1M
20260429T00Z_MSC_RDPS_RelativeHumidity_IsbL-0925_RLatLon0.09_PT035H.grib2 2026-04-29 02:49 1.1M
20260429T00Z_MSC_RDPS_RelativeHumidity_IsbL-0950_RLatLon0.09_PT035H.grib2 2026-04-29 02:49 1.1M
20260429T00Z_MSC_RDPS_RelativeHumidity_IsbL-0970_RLatLon0.09_PT035H.grib2 2026-04-29 02:49 1.1M
20260429T00Z_MSC_RDPS_RelativeHumidity_IsbL-0985_RLatLon0.09_PT035H.grib2 2026-04-29 02:49 1.0M
20260429T00Z_MSC_RDPS_RelativeHumidity_IsbL-1000_RLatLon0.09_PT035H.grib2 2026-04-29 02:49 1.0M
20260429T00Z_MSC_RDPS_RelativeHumidity_IsbL-1015_RLatLon0.09_PT035H.grib2 2026-04-29 02:49 1.0M
20260429T00Z_MSC_RDPS_Runoff-Accum_Sfc_RLatLon0.09_PT035H.grib2 2026-04-29 02:49 58K
20260429T00Z_MSC_RDPS_SWEATIndex_Sfc_RLatLon0.09_PT035H.grib2 2026-04-29 02:49 2.4M
20260429T00Z_MSC_RDPS_SeeingIndex_EAtm_RLatLon0.09_PT035H.grib2 2026-04-29 02:49 1.0M
20260429T00Z_MSC_RDPS_SensibleHeatNetFlux_Sfc_RLatLon0.09_PT035H.grib2 2026-04-29 02:49 292K
20260429T00Z_MSC_RDPS_ShowalterIndex_IsbL-0500_RLatLon0.09_PT035H.grib2 2026-04-29 02:49 2.6M
20260429T00Z_MSC_RDPS_SkyTransparencyIndex_EAtm_RLatLon0.09_PT035H.grib2 2026-04-29 02:49 691K
20260429T00Z_MSC_RDPS_Snow-Accum1h_Sfc_RLatLon0.09_PT035H.grib2 2026-04-29 02:49 457K
20260429T00Z_MSC_RDPS_Snow-Accum_Sfc_RLatLon0.09_PT035H.grib2 2026-04-29 02:49 741K
20260429T00Z_MSC_RDPS_SnowDensity_Sfc_RLatLon0.09_PT035H.grib2 2026-04-29 02:49 180K
20260429T00Z_MSC_RDPS_SnowDepth_Sfc_RLatLon0.09_PT035H.grib2 2026-04-29 02:49 683K
20260429T00Z_MSC_RDPS_SoilTemp_DBS-0to10cm_RLatLon0.09_PT035H.grib2 2026-04-29 02:49 230K
20260429T00Z_MSC_RDPS_SoilTemp_Sfc_RLatLon0.09_PT035H.grib2 2026-04-29 02:49 275K
20260429T00Z_MSC_RDPS_SoilVolumetricIceContent_Sfc_RLatLon0.09_PT035H.grib2 2026-04-29 02:49 165K
20260429T00Z_MSC_RDPS_SoilVolumetricWaterContent_DBS-0to10cm_RLatLon0.09_PT035H.grib2 2026-04-29 02:49 267K
20260429T00Z_MSC_RDPS_SoilVolumetricWaterContent_DBS-0to1cm_RLatLon0.09_PT035H.grib2 2026-04-29 02:49 335K
20260429T00Z_MSC_RDPS_SpecificHumidity_AGL-120m_RLatLon0.09_PT035H.grib2 2026-04-29 02:49 486K
20260429T00Z_MSC_RDPS_SpecificHumidity_AGL-2m_RLatLon0.09_PT035H.grib2 2026-04-29 02:49 652K
20260429T00Z_MSC_RDPS_SpecificHumidity_AGL-40m_RLatLon0.09_PT035H.grib2 2026-04-29 02:49 492K
20260429T00Z_MSC_RDPS_SpecificHumidity_AGL-80m_RLatLon0.09_PT035H.grib2 2026-04-29 02:49 488K
20260429T00Z_MSC_RDPS_SpecificHumidity_IsbL-0001_RLatLon0.09_PT035H.grib2 2026-04-29 02:49 343K
20260429T00Z_MSC_RDPS_SpecificHumidity_IsbL-0005_RLatLon0.09_PT035H.grib2 2026-04-29 02:49 360K
20260429T00Z_MSC_RDPS_SpecificHumidity_IsbL-0010_RLatLon0.09_PT035H.grib2 2026-04-29 02:49 398K
20260429T00Z_MSC_RDPS_SpecificHumidity_IsbL-0020_RLatLon0.09_PT035H.grib2 2026-04-29 02:49 389K
20260429T00Z_MSC_RDPS_SpecificHumidity_IsbL-0030_RLatLon0.09_PT035H.grib2 2026-04-29 02:49 372K
20260429T00Z_MSC_RDPS_SpecificHumidity_IsbL-0050_RLatLon0.09_PT035H.grib2 2026-04-29 02:49 489K
20260429T00Z_MSC_RDPS_SpecificHumidity_IsbL-0100_RLatLon0.09_PT035H.grib2 2026-04-29 02:49 453K
20260429T00Z_MSC_RDPS_SpecificHumidity_IsbL-0150_RLatLon0.09_PT035H.grib2 2026-04-29 02:49 455K
20260429T00Z_MSC_RDPS_SpecificHumidity_IsbL-0175_RLatLon0.09_PT035H.grib2 2026-04-29 02:49 537K
20260429T00Z_MSC_RDPS_SpecificHumidity_IsbL-0200_RLatLon0.09_PT035H.grib2 2026-04-29 02:49 448K
20260429T00Z_MSC_RDPS_SpecificHumidity_IsbL-0225_RLatLon0.09_PT035H.grib2 2026-04-29 02:49 456K
20260429T00Z_MSC_RDPS_SpecificHumidity_IsbL-0250_RLatLon0.09_PT035H.grib2 2026-04-29 02:49 564K
20260429T00Z_MSC_RDPS_SpecificHumidity_IsbL-0275_RLatLon0.09_PT035H.grib2 2026-04-29 02:49 478K
20260429T00Z_MSC_RDPS_SpecificHumidity_IsbL-0300_RLatLon0.09_PT035H.grib2 2026-04-29 02:49 553K
20260429T00Z_MSC_RDPS_SpecificHumidity_IsbL-0350_RLatLon0.09_PT035H.grib2 2026-04-29 02:49 542K
20260429T00Z_MSC_RDPS_SpecificHumidity_IsbL-0400_RLatLon0.09_PT035H.grib2 2026-04-29 02:49 521K
20260429T00Z_MSC_RDPS_SpecificHumidity_IsbL-0450_RLatLon0.09_PT035H.grib2 2026-04-29 02:49 571K
20260429T00Z_MSC_RDPS_SpecificHumidity_IsbL-0500_RLatLon0.09_PT035H.grib2 2026-04-29 02:49 507K
20260429T00Z_MSC_RDPS_SpecificHumidity_IsbL-0550_RLatLon0.09_PT035H.grib2 2026-04-29 02:49 564K
20260429T00Z_MSC_RDPS_SpecificHumidity_IsbL-0600_RLatLon0.09_PT035H.grib2 2026-04-29 02:49 639K
20260429T00Z_MSC_RDPS_SpecificHumidity_IsbL-0650_RLatLon0.09_PT035H.grib2 2026-04-29 02:49 558K
20260429T00Z_MSC_RDPS_SpecificHumidity_IsbL-0700_RLatLon0.09_PT035H.grib2 2026-04-29 02:49 598K
20260429T00Z_MSC_RDPS_SpecificHumidity_IsbL-0750_RLatLon0.09_PT035H.grib2 2026-04-29 02:49 649K
20260429T00Z_MSC_RDPS_SpecificHumidity_IsbL-0800_RLatLon0.09_PT035H.grib2 2026-04-29 02:49 712K
20260429T00Z_MSC_RDPS_SpecificHumidity_IsbL-0850_RLatLon0.09_PT035H.grib2 2026-04-29 02:49 792K
20260429T00Z_MSC_RDPS_SpecificHumidity_IsbL-0875_RLatLon0.09_PT035H.grib2 2026-04-29 02:49 819K
20260429T00Z_MSC_RDPS_SpecificHumidity_IsbL-0900_RLatLon0.09_PT035H.grib2 2026-04-29 02:49 833K
20260429T00Z_MSC_RDPS_SpecificHumidity_IsbL-0925_RLatLon0.09_PT035H.grib2 2026-04-29 02:49 833K
20260429T00Z_MSC_RDPS_SpecificHumidity_IsbL-0950_RLatLon0.09_PT035H.grib2 2026-04-29 02:49 836K
20260429T00Z_MSC_RDPS_SpecificHumidity_IsbL-0970_RLatLon0.09_PT035H.grib2 2026-04-29 02:49 829K
20260429T00Z_MSC_RDPS_SpecificHumidity_IsbL-0985_RLatLon0.09_PT035H.grib2 2026-04-29 02:49 817K
20260429T00Z_MSC_RDPS_SpecificHumidity_IsbL-1000_RLatLon0.09_PT035H.grib2 2026-04-29 02:49 669K
20260429T00Z_MSC_RDPS_SpecificHumidity_IsbL-1015_RLatLon0.09_PT035H.grib2 2026-04-29 02:49 660K
20260429T00Z_MSC_RDPS_SpecificHumidity_Sfc_RLatLon0.09_PT035H.grib2 2026-04-29 02:49 292K
20260429T00Z_MSC_RDPS_StormRelativeHelicity_EtaL-10000_RLatLon0.09_PT035H.grib2 2026-04-29 02:49 1.1M
20260429T00Z_MSC_RDPS_StormSeverityIndex_EtaL-10000_RLatLon0.09_PT035H.grib2 2026-04-29 02:49 1.1M
20260429T00Z_MSC_RDPS_Thickness_IsbL-0850to0700_RLatLon0.09_PT035H.grib2 2026-04-29 02:49 177K
20260429T00Z_MSC_RDPS_Thickness_IsbL-1000to0500_RLatLon0.09_PT035H.grib2 2026-04-29 02:49 198K
20260429T00Z_MSC_RDPS_Thickness_IsbL-1000to0850_RLatLon0.09_PT035H.grib2 2026-04-29 02:49 260K
20260429T00Z_MSC_RDPS_TotalCloudCover_Sfc_RLatLon0.09_PT035H.grib2 2026-04-29 02:49 665K
20260429T00Z_MSC_RDPS_TotalTotalsIndex_Sfc_RLatLon0.09_PT035H.grib2 2026-04-29 02:49 2.4M
20260429T00Z_MSC_RDPS_UVIndex-ClearSky_Sfc_RLatLon0.09_PT035H.grib2 2026-04-29 02:49 117K
20260429T00Z_MSC_RDPS_UVIndex_Sfc_RLatLon0.09_PT035H.grib2 2026-04-29 02:49 260K
20260429T00Z_MSC_RDPS_UpwardLongwaveRadiationFlux_NTAtm_RLatLon0.09_PT035H.grib2 2026-04-29 02:49 493K
20260429T00Z_MSC_RDPS_UpwardShortwaveRadiationFlux_NTAtm_RLatLon0.09_PT035H.grib2 2026-04-29 02:49 247K
20260429T00Z_MSC_RDPS_VerticalVelocity_IsbL-0250_RLatLon0.09_PT035H.grib2 2026-04-29 02:49 561K
20260429T00Z_MSC_RDPS_VerticalVelocity_IsbL-0500_RLatLon0.09_PT035H.grib2 2026-04-29 02:49 547K
20260429T00Z_MSC_RDPS_VerticalVelocity_IsbL-0700_RLatLon0.09_PT035H.grib2 2026-04-29 02:49 590K
20260429T00Z_MSC_RDPS_VerticalVelocity_IsbL-0850_RLatLon0.09_PT035H.grib2 2026-04-29 02:49 639K
20260429T00Z_MSC_RDPS_VerticalWindShear_EtaL-6500_RLatLon0.09_PT035H.grib2 2026-04-29 02:49 1.2M
20260429T00Z_MSC_RDPS_WindChill_Sfc_RLatLon0.09_PT035H.grib2 2026-04-29 02:49 1.1M
20260429T00Z_MSC_RDPS_WindDir_AGL-10m_RLatLon0.09_PT035H.grib2 2026-04-29 02:49 1.0M
20260429T00Z_MSC_RDPS_WindDir_AGL-120m_RLatLon0.09_PT035H.grib2 2026-04-29 02:49 621K
20260429T00Z_MSC_RDPS_WindDir_AGL-40m_RLatLon0.09_PT035H.grib2 2026-04-29 02:49 651K
20260429T00Z_MSC_RDPS_WindDir_AGL-80m_RLatLon0.09_PT035H.grib2 2026-04-29 02:49 632K
20260429T00Z_MSC_RDPS_WindDir_IsbL-0001_RLatLon0.09_PT035H.grib2 2026-04-29 02:49 302K
20260429T00Z_MSC_RDPS_WindDir_IsbL-0005_RLatLon0.09_PT035H.grib2 2026-04-29 02:49 370K
20260429T00Z_MSC_RDPS_WindDir_IsbL-0010_RLatLon0.09_PT035H.grib2 2026-04-29 02:49 375K
20260429T00Z_MSC_RDPS_WindDir_IsbL-0020_RLatLon0.09_PT035H.grib2 2026-04-29 02:49 427K
20260429T00Z_MSC_RDPS_WindDir_IsbL-0030_RLatLon0.09_PT035H.grib2 2026-04-29 02:49 425K
20260429T00Z_MSC_RDPS_WindDir_IsbL-0050_RLatLon0.09_PT035H.grib2 2026-04-29 02:49 437K
20260429T00Z_MSC_RDPS_WindDir_IsbL-0100_RLatLon0.09_PT035H.grib2 2026-04-29 02:49 445K
20260429T00Z_MSC_RDPS_WindDir_IsbL-0150_RLatLon0.09_PT035H.grib2 2026-04-29 02:49 429K
20260429T00Z_MSC_RDPS_WindDir_IsbL-0175_RLatLon0.09_PT035H.grib2 2026-04-29 02:49 450K
20260429T00Z_MSC_RDPS_WindDir_IsbL-0200_RLatLon0.09_PT035H.grib2 2026-04-29 02:49 462K
20260429T00Z_MSC_RDPS_WindDir_IsbL-0225_RLatLon0.09_PT035H.grib2 2026-04-29 02:49 469K
20260429T00Z_MSC_RDPS_WindDir_IsbL-0250_RLatLon0.09_PT035H.grib2 2026-04-29 02:49 468K
20260429T00Z_MSC_RDPS_WindDir_IsbL-0275_RLatLon0.09_PT035H.grib2 2026-04-29 02:49 489K
20260429T00Z_MSC_RDPS_WindDir_IsbL-0300_RLatLon0.09_PT035H.grib2 2026-04-29 02:49 486K
20260429T00Z_MSC_RDPS_WindDir_IsbL-0350_RLatLon0.09_PT035H.grib2 2026-04-29 02:49 504K
20260429T00Z_MSC_RDPS_WindDir_IsbL-0400_RLatLon0.09_PT035H.grib2 2026-04-29 02:49 516K
20260429T00Z_MSC_RDPS_WindDir_IsbL-0450_RLatLon0.09_PT035H.grib2 2026-04-29 02:49 525K
20260429T00Z_MSC_RDPS_WindDir_IsbL-0500_RLatLon0.09_PT035H.grib2 2026-04-29 02:49 541K
20260429T00Z_MSC_RDPS_WindDir_IsbL-0550_RLatLon0.09_PT035H.grib2 2026-04-29 02:49 560K
20260429T00Z_MSC_RDPS_WindDir_IsbL-0600_RLatLon0.09_PT035H.grib2 2026-04-29 02:49 596K
20260429T00Z_MSC_RDPS_WindDir_IsbL-0650_RLatLon0.09_PT035H.grib2 2026-04-29 02:49 644K
20260429T00Z_MSC_RDPS_WindDir_IsbL-0700_RLatLon0.09_PT035H.grib2 2026-04-29 02:49 690K
20260429T00Z_MSC_RDPS_WindDir_IsbL-0750_RLatLon0.09_PT035H.grib2 2026-04-29 02:49 731K
20260429T00Z_MSC_RDPS_WindDir_IsbL-0800_RLatLon0.09_PT035H.grib2 2026-04-29 02:49 789K
20260429T00Z_MSC_RDPS_WindDir_IsbL-0850_RLatLon0.09_PT035H.grib2 2026-04-29 02:49 868K
20260429T00Z_MSC_RDPS_WindDir_IsbL-0875_RLatLon0.09_PT035H.grib2 2026-04-29 02:49 900K
20260429T00Z_MSC_RDPS_WindDir_IsbL-0900_RLatLon0.09_PT035H.grib2 2026-04-29 02:49 920K
20260429T00Z_MSC_RDPS_WindDir_IsbL-0925_RLatLon0.09_PT035H.grib2 2026-04-29 02:49 927K
20260429T00Z_MSC_RDPS_WindDir_IsbL-0950_RLatLon0.09_PT035H.grib2 2026-04-29 02:49 929K
20260429T00Z_MSC_RDPS_WindDir_IsbL-0970_RLatLon0.09_PT035H.grib2 2026-04-29 02:49 938K
20260429T00Z_MSC_RDPS_WindDir_IsbL-0985_RLatLon0.09_PT035H.grib2 2026-04-29 02:49 948K
20260429T00Z_MSC_RDPS_WindDir_IsbL-1000_RLatLon0.09_PT035H.grib2 2026-04-29 02:49 962K
20260429T00Z_MSC_RDPS_WindDir_IsbL-1015_RLatLon0.09_PT035H.grib2 2026-04-29 02:49 1.0M
20260429T00Z_MSC_RDPS_WindGust-Max_AGL-10m_RLatLon0.09_PT035H.grib2 2026-04-29 02:49 1.0M
20260429T00Z_MSC_RDPS_WindGust-Min_AGL-10m_RLatLon0.09_PT035H.grib2 2026-04-29 02:49 971K
20260429T00Z_MSC_RDPS_WindGust_AGL-10m_RLatLon0.09_PT035H.grib2 2026-04-29 02:49 1.0M
20260429T00Z_MSC_RDPS_WindSpeed_AGL-10m_RLatLon0.09_PT035H.grib2 2026-04-29 02:49 844K
20260429T00Z_MSC_RDPS_WindSpeed_AGL-120m_RLatLon0.09_PT035H.grib2 2026-04-29 02:49 554K
20260429T00Z_MSC_RDPS_WindSpeed_AGL-40m_RLatLon0.09_PT035H.grib2 2026-04-29 02:49 544K
20260429T00Z_MSC_RDPS_WindSpeed_AGL-80m_RLatLon0.09_PT035H.grib2 2026-04-29 02:49 544K
20260429T00Z_MSC_RDPS_WindSpeed_IsbL-0001_RLatLon0.09_PT035H.grib2 2026-04-29 02:49 332K
20260429T00Z_MSC_RDPS_WindSpeed_IsbL-0005_RLatLon0.09_PT035H.grib2 2026-04-29 02:49 298K
20260429T00Z_MSC_RDPS_WindSpeed_IsbL-0010_RLatLon0.09_PT035H.grib2 2026-04-29 02:49 403K
20260429T00Z_MSC_RDPS_WindSpeed_IsbL-0020_RLatLon0.09_PT035H.grib2 2026-04-29 02:49 328K
20260429T00Z_MSC_RDPS_WindSpeed_IsbL-0030_RLatLon0.09_PT035H.grib2 2026-04-29 02:49 326K
20260429T00Z_MSC_RDPS_WindSpeed_IsbL-0050_RLatLon0.09_PT035H.grib2 2026-04-29 02:49 354K
20260429T00Z_MSC_RDPS_WindSpeed_IsbL-0100_RLatLon0.09_PT035H.grib2 2026-04-29 02:49 483K
20260429T00Z_MSC_RDPS_WindSpeed_IsbL-0150_RLatLon0.09_PT035H.grib2 2026-04-29 02:49 388K
20260429T00Z_MSC_RDPS_WindSpeed_IsbL-0175_RLatLon0.09_PT035H.grib2 2026-04-29 02:49 434K
20260429T00Z_MSC_RDPS_WindSpeed_IsbL-0200_RLatLon0.09_PT035H.grib2 2026-04-29 02:49 449K
20260429T00Z_MSC_RDPS_WindSpeed_IsbL-0225_RLatLon0.09_PT035H.grib2 2026-04-29 02:49 455K
20260429T00Z_MSC_RDPS_WindSpeed_IsbL-0250_RLatLon0.09_PT035H.grib2 2026-04-29 02:49 458K
20260429T00Z_MSC_RDPS_WindSpeed_IsbL-0275_RLatLon0.09_PT035H.grib2 2026-04-29 02:49 477K
20260429T00Z_MSC_RDPS_WindSpeed_IsbL-0300_RLatLon0.09_PT035H.grib2 2026-04-29 02:49 473K
20260429T00Z_MSC_RDPS_WindSpeed_IsbL-0350_RLatLon0.09_PT035H.grib2 2026-04-29 02:49 486K
20260429T00Z_MSC_RDPS_WindSpeed_IsbL-0400_RLatLon0.09_PT035H.grib2 2026-04-29 02:49 469K
20260429T00Z_MSC_RDPS_WindSpeed_IsbL-0450_RLatLon0.09_PT035H.grib2 2026-04-29 02:49 468K
20260429T00Z_MSC_RDPS_WindSpeed_IsbL-0500_RLatLon0.09_PT035H.grib2 2026-04-29 02:49 470K
20260429T00Z_MSC_RDPS_WindSpeed_IsbL-0550_RLatLon0.09_PT035H.grib2 2026-04-29 02:49 468K
20260429T00Z_MSC_RDPS_WindSpeed_IsbL-0600_RLatLon0.09_PT035H.grib2 2026-04-29 02:49 594K
20260429T00Z_MSC_RDPS_WindSpeed_IsbL-0650_RLatLon0.09_PT035H.grib2 2026-04-29 02:49 615K
20260429T00Z_MSC_RDPS_WindSpeed_IsbL-0700_RLatLon0.09_PT035H.grib2 2026-04-29 02:49 683K
20260429T00Z_MSC_RDPS_WindSpeed_IsbL-0750_RLatLon0.09_PT035H.grib2 2026-04-29 02:49 712K
20260429T00Z_MSC_RDPS_WindSpeed_IsbL-0800_RLatLon0.09_PT035H.grib2 2026-04-29 02:49 754K
20260429T00Z_MSC_RDPS_WindSpeed_IsbL-0850_RLatLon0.09_PT035H.grib2 2026-04-29 02:49 812K
20260429T00Z_MSC_RDPS_WindSpeed_IsbL-0875_RLatLon0.09_PT035H.grib2 2026-04-29 02:49 833K
20260429T00Z_MSC_RDPS_WindSpeed_IsbL-0900_RLatLon0.09_PT035H.grib2 2026-04-29 02:49 849K
20260429T00Z_MSC_RDPS_WindSpeed_IsbL-0925_RLatLon0.09_PT035H.grib2 2026-04-29 02:49 860K
20260429T00Z_MSC_RDPS_WindSpeed_IsbL-0950_RLatLon0.09_PT035H.grib2 2026-04-29 02:49 862K
20260429T00Z_MSC_RDPS_WindSpeed_IsbL-0970_RLatLon0.09_PT035H.grib2 2026-04-29 02:49 863K
20260429T00Z_MSC_RDPS_WindSpeed_IsbL-0985_RLatLon0.09_PT035H.grib2 2026-04-29 02:49 855K
20260429T00Z_MSC_RDPS_WindSpeed_IsbL-1000_RLatLon0.09_PT035H.grib2 2026-04-29 02:49 850K
20260429T00Z_MSC_RDPS_WindSpeed_IsbL-1015_RLatLon0.09_PT035H.grib2 2026-04-29 02:49 842K
20260429T00Z_MSC_RDPS_WindU_AGL-10m_RLatLon0.09_PT035H.grib2 2026-04-29 02:49 432K
20260429T00Z_MSC_RDPS_WindU_AGL-120m_RLatLon0.09_PT035H.grib2 2026-04-29 02:49 538K
20260429T00Z_MSC_RDPS_WindU_AGL-40m_RLatLon0.09_PT035H.grib2 2026-04-29 02:49 540K
20260429T00Z_MSC_RDPS_WindU_AGL-80m_RLatLon0.09_PT035H.grib2 2026-04-29 02:49 539K
20260429T00Z_MSC_RDPS_WindU_IsbL-0001_RLatLon0.09_PT035H.grib2 2026-04-29 02:49 292K
20260429T00Z_MSC_RDPS_WindU_IsbL-0005_RLatLon0.09_PT035H.grib2 2026-04-29 02:49 331K
20260429T00Z_MSC_RDPS_WindU_IsbL-0010_RLatLon0.09_PT035H.grib2 2026-04-29 02:49 301K
20260429T00Z_MSC_RDPS_WindU_IsbL-0020_RLatLon0.09_PT035H.grib2 2026-04-29 02:49 356K
20260429T00Z_MSC_RDPS_WindU_IsbL-0030_RLatLon0.09_PT035H.grib2 2026-04-29 02:49 317K
20260429T00Z_MSC_RDPS_WindU_IsbL-0050_RLatLon0.09_PT035H.grib2 2026-04-29 02:49 347K
20260429T00Z_MSC_RDPS_WindU_IsbL-0100_RLatLon0.09_PT035H.grib2 2026-04-29 02:49 341K
20260429T00Z_MSC_RDPS_WindU_IsbL-0150_RLatLon0.09_PT035H.grib2 2026-04-29 02:49 402K
20260429T00Z_MSC_RDPS_WindU_IsbL-0175_RLatLon0.09_PT035H.grib2 2026-04-29 02:49 426K
20260429T00Z_MSC_RDPS_WindU_IsbL-0200_RLatLon0.09_PT035H.grib2 2026-04-29 02:49 342K
20260429T00Z_MSC_RDPS_WindU_IsbL-0225_RLatLon0.09_PT035H.grib2 2026-04-29 02:49 346K
20260429T00Z_MSC_RDPS_WindU_IsbL-0250_RLatLon0.09_PT035H.grib2 2026-04-29 02:49 348K
20260429T00Z_MSC_RDPS_WindU_IsbL-0275_RLatLon0.09_PT035H.grib2 2026-04-29 02:49 364K
20260429T00Z_MSC_RDPS_WindU_IsbL-0300_RLatLon0.09_PT035H.grib2 2026-04-29 02:49 359K
20260429T00Z_MSC_RDPS_WindU_IsbL-0350_RLatLon0.09_PT035H.grib2 2026-04-29 02:49 473K
20260429T00Z_MSC_RDPS_WindU_IsbL-0400_RLatLon0.09_PT035H.grib2 2026-04-29 02:49 473K
20260429T00Z_MSC_RDPS_WindU_IsbL-0450_RLatLon0.09_PT035H.grib2 2026-04-29 02:49 472K
20260429T00Z_MSC_RDPS_WindU_IsbL-0500_RLatLon0.09_PT035H.grib2 2026-04-29 02:49 475K
20260429T00Z_MSC_RDPS_WindU_IsbL-0550_RLatLon0.09_PT035H.grib2 2026-04-29 02:49 474K
20260429T00Z_MSC_RDPS_WindU_IsbL-0600_RLatLon0.09_PT035H.grib2 2026-04-29 02:49 464K
20260429T00Z_MSC_RDPS_WindU_IsbL-0650_RLatLon0.09_PT035H.grib2 2026-04-29 02:49 484K
20260429T00Z_MSC_RDPS_WindU_IsbL-0700_RLatLon0.09_PT035H.grib2 2026-04-29 02:49 506K
20260429T00Z_MSC_RDPS_WindU_IsbL-0750_RLatLon0.09_PT035H.grib2 2026-04-29 02:49 532K
20260429T00Z_MSC_RDPS_WindU_IsbL-0800_RLatLon0.09_PT035H.grib2 2026-04-29 02:49 570K
20260429T00Z_MSC_RDPS_WindU_IsbL-0850_RLatLon0.09_PT035H.grib2 2026-04-29 02:49 621K
20260429T00Z_MSC_RDPS_WindU_IsbL-0875_RLatLon0.09_PT035H.grib2 2026-04-29 02:49 639K
20260429T00Z_MSC_RDPS_WindU_IsbL-0900_RLatLon0.09_PT035H.grib2 2026-04-29 02:49 651K
20260429T00Z_MSC_RDPS_WindU_IsbL-0925_RLatLon0.09_PT035H.grib2 2026-04-29 02:49 658K
20260429T00Z_MSC_RDPS_WindU_IsbL-0950_RLatLon0.09_PT035H.grib2 2026-04-29 02:49 656K
20260429T00Z_MSC_RDPS_WindU_IsbL-0970_RLatLon0.09_PT035H.grib2 2026-04-29 02:49 655K
20260429T00Z_MSC_RDPS_WindU_IsbL-0985_RLatLon0.09_PT035H.grib2 2026-04-29 02:49 792K
20260429T00Z_MSC_RDPS_WindU_IsbL-1000_RLatLon0.09_PT035H.grib2 2026-04-29 02:49 787K
20260429T00Z_MSC_RDPS_WindU_IsbL-1015_RLatLon0.09_PT035H.grib2 2026-04-29 02:49 827K
20260429T00Z_MSC_RDPS_WindV_AGL-10m_RLatLon0.09_PT035H.grib2 2026-04-29 02:49 432K
20260429T00Z_MSC_RDPS_WindV_AGL-120m_RLatLon0.09_PT035H.grib2 2026-04-29 02:49 536K
20260429T00Z_MSC_RDPS_WindV_AGL-40m_RLatLon0.09_PT035H.grib2 2026-04-29 02:49 538K
20260429T00Z_MSC_RDPS_WindV_AGL-80m_RLatLon0.09_PT035H.grib2 2026-04-29 02:49 537K
20260429T00Z_MSC_RDPS_WindV_IsbL-0001_RLatLon0.09_PT035H.grib2 2026-04-29 02:49 246K
20260429T00Z_MSC_RDPS_WindV_IsbL-0005_RLatLon0.09_PT035H.grib2 2026-04-29 02:49 290K
20260429T00Z_MSC_RDPS_WindV_IsbL-0010_RLatLon0.09_PT035H.grib2 2026-04-29 02:49 304K
20260429T00Z_MSC_RDPS_WindV_IsbL-0020_RLatLon0.09_PT035H.grib2 2026-04-29 02:49 320K
20260429T00Z_MSC_RDPS_WindV_IsbL-0030_RLatLon0.09_PT035H.grib2 2026-04-29 02:49 321K
20260429T00Z_MSC_RDPS_WindV_IsbL-0050_RLatLon0.09_PT035H.grib2 2026-04-29 02:49 348K
20260429T00Z_MSC_RDPS_WindV_IsbL-0100_RLatLon0.09_PT035H.grib2 2026-04-29 02:49 434K
20260429T00Z_MSC_RDPS_WindV_IsbL-0150_RLatLon0.09_PT035H.grib2 2026-04-29 02:49 401K
20260429T00Z_MSC_RDPS_WindV_IsbL-0175_RLatLon0.09_PT035H.grib2 2026-04-29 02:49 424K
20260429T00Z_MSC_RDPS_WindV_IsbL-0200_RLatLon0.09_PT035H.grib2 2026-04-29 02:49 339K
20260429T00Z_MSC_RDPS_WindV_IsbL-0225_RLatLon0.09_PT035H.grib2 2026-04-29 02:49 344K
20260429T00Z_MSC_RDPS_WindV_IsbL-0250_RLatLon0.09_PT035H.grib2 2026-04-29 02:49 347K
20260429T00Z_MSC_RDPS_WindV_IsbL-0275_RLatLon0.09_PT035H.grib2 2026-04-29 02:49 361K
20260429T00Z_MSC_RDPS_WindV_IsbL-0300_RLatLon0.09_PT035H.grib2 2026-04-29 02:49 356K
20260429T00Z_MSC_RDPS_WindV_IsbL-0350_RLatLon0.09_PT035H.grib2 2026-04-29 02:49 366K
20260429T00Z_MSC_RDPS_WindV_IsbL-0400_RLatLon0.09_PT035H.grib2 2026-04-29 02:49 471K
20260429T00Z_MSC_RDPS_WindV_IsbL-0450_RLatLon0.09_PT035H.grib2 2026-04-29 02:49 470K
20260429T00Z_MSC_RDPS_WindV_IsbL-0500_RLatLon0.09_PT035H.grib2 2026-04-29 02:49 473K
20260429T00Z_MSC_RDPS_WindV_IsbL-0550_RLatLon0.09_PT035H.grib2 2026-04-29 02:49 471K
20260429T00Z_MSC_RDPS_WindV_IsbL-0600_RLatLon0.09_PT035H.grib2 2026-04-29 02:49 479K
20260429T00Z_MSC_RDPS_WindV_IsbL-0650_RLatLon0.09_PT035H.grib2 2026-04-29 02:49 481K
20260429T00Z_MSC_RDPS_WindV_IsbL-0700_RLatLon0.09_PT035H.grib2 2026-04-29 02:49 502K
20260429T00Z_MSC_RDPS_WindV_IsbL-0750_RLatLon0.09_PT035H.grib2 2026-04-29 02:49 527K
20260429T00Z_MSC_RDPS_WindV_IsbL-0800_RLatLon0.09_PT035H.grib2 2026-04-29 02:49 694K
20260429T00Z_MSC_RDPS_WindV_IsbL-0850_RLatLon0.09_PT035H.grib2 2026-04-29 02:49 751K
20260429T00Z_MSC_RDPS_WindV_IsbL-0875_RLatLon0.09_PT035H.grib2 2026-04-29 02:49 636K
20260429T00Z_MSC_RDPS_WindV_IsbL-0900_RLatLon0.09_PT035H.grib2 2026-04-29 02:49 649K
20260429T00Z_MSC_RDPS_WindV_IsbL-0925_RLatLon0.09_PT035H.grib2 2026-04-29 02:49 657K
20260429T00Z_MSC_RDPS_WindV_IsbL-0950_RLatLon0.09_PT035H.grib2 2026-04-29 02:49 796K
20260429T00Z_MSC_RDPS_WindV_IsbL-0970_RLatLon0.09_PT035H.grib2 2026-04-29 02:49 796K
20260429T00Z_MSC_RDPS_WindV_IsbL-0985_RLatLon0.09_PT035H.grib2 2026-04-29 02:49 791K
20260429T00Z_MSC_RDPS_WindV_IsbL-1000_RLatLon0.09_PT035H.grib2 2026-04-29 02:49 832K
20260429T00Z_MSC_RDPS_WindV_IsbL-1015_RLatLon0.09_PT035H.grib2 2026-04-29 02:49 824K